Regional Weather Roundup
Issued by NWS

Home | Current Version | Previous Version | Graphics & Text | Print | Product List | Glossary Off
Versions: 1 2 3 4 5 6 7 8 9 10 11 12 13 14 15 16 17 18 19 20 21 22 23 24 25 26 27 28 29 30 31 32 33 34 35 36 37 38 39 40 41 42 43 44 45 46 47 48 49 50

000
ASUS43 KTOP 221908
RWRKS

WEATHER ROUNDUP FOR KANSAS
NATIONAL WEATHER SERVICE GOODLAND KS
100 PM CST WED FEB 22 2017

NOTE:  "FAIR" INDICATES FEW OR NO CLOUDS BELOW 12,000 FEET WITH NO
SIGNIFICANT WEATHER AND/OR OBSTRUCTIONS TO VISIBILITY.

KSZ001>006-013>018-027>032-041>047-222000-
NORTHWEST KANSAS

CITY           SKY/WX    TMP DP  RH WIND       PRES   REMARKS
GOODLAND       SUNNY     62  21  20 N9        29.84F
HAYS             N/A     71  34  25 N13       29.77S
HILL CITY      SUNNY     72  31  22 N10       29.78F
RUSSELL        MOSUNNY  N/A N/A N/A MISG      29.74F
$$

KSZ061>065-074>080-084>089-222000-
SOUTHWEST KANSAS

CITY           SKY/WX    TMP DP  RH WIND       PRES   REMARKS
DODGE CITY     SUNNY     73  29  19 NW10G17   29.80F
ELKHART          N/A     74  27  17 S6          N/A
GARDEN CITY    SUNNY     70  29  21 N7        29.81F
GREAT BEND     SUNNY     72  31  22 NW9       29.76F
LIBERAL        SUNNY     75  27  16 N15       29.82F
PRATT          SUNNY     76  25  15 NW13      29.75F
$$

KSZ066>073-081>083-090>101-222000-
SOUTHEAST KANSAS

CITY           SKY/WX    TMP DP  RH WIND       PRES   REMARKS
CHANUTE        SUNNY     77  36  22 S23G30    29.72F
COFFEYVILLE    SUNNY     75  44  33 S18       29.76F
HUTCHINSON     SUNNY     77  27  15 NW10      29.71F
MEDICINE LODGE   N/A     81  26  13 NW9       29.73F
NEWTON         SUNNY     72  43  35 W8        29.73
PARSONS        SUNNY     76  41  28 S16G24    29.75F
WICHITA INTL   MOSUNNY   71  44  37 S12       29.73F
WICHITA JABRA  SUNNY     72  42  34 SW8       29.73F
WICHITA MCCONL SUNNY     72  40  31 W9        29.73F
WINFIELD       SUNNY     72  44  36 SW16      29.75F
$$

KSZ007>012-019>026-033>040-048>060-102>105-222000-
NORTHEAST KANSAS

CITY           SKY/WX    TMP DP  RH WIND       PRES   REMARKS
CONCORDIA      SUNNY     73  32  22 NW9       29.69F
EMPORIA        SUNNY     76  34  21 SW13      29.71F
LAWRENCE       PTSUNNY   75  36  24 SW10      29.68F
MANHATTAN      SUNNY     72  37  28 W8        29.69F
MARYSVILLE     SUNNY     73  32  21 W5        29.67F
OLATHE IND     MOSUNNY   75  37  25 SW15      29.71F
OLATHE EXE     PTSUNNY   73  38  27 SW16G24   29.71F
SALINA         SUNNY     76  26  15 NW12      29.71F
TOPEKA BILLARD CLOUDY    75  36  24 SW12      29.67F
TOPEKA FORBES  PTSUNNY   76  35  22 SW16      29.68F
$$




USA.gov is the U.S. government's official web portal to all federal, state and local government web resources and services.